Orbital elements:
1998 PG
Id. K. J. Lawrence (1978 observations)
Epoch 1999 Aug. 10.0 TT = JDT 2451400.5                 Williams
M 102.19796              (2000.0)            P               Q
n   0.34452253     Peri.  155.73126     +0.94570734     -0.31578372
a   2.0152285      Node   222.91704     +0.27666947     +0.90636008
e   0.3919257      Incl.    6.48695     +0.17056271     +0.28069920
P   2.86           H   17.1           G   0.15           U   1
Residuals in seconds of arc
781007 675  0.9-  1.4+    980829 121  0.2-  0.3+    981015 143  0.7-  0.7+
781007 675  1.6+  0.7-    980829 670  0.1-  0.1+    981016 670  0.3+  0.1+
781102 675  0.2-  1.1+    980829 670  0.9-  0.1+    981016 670  0.2-  0.2-
781102 675  0.7-  0.9-    980829 670  0.3-  0.5-    981016 670  0.5+  0.5-
980803 699  0.6+  0.4-    980830 143  1.6-  0.1+    981016 151  0.0   0.4-
980803 699  0.7+  0.8-    980830 143  0.7-  0.3+    981016 151  0.3+  0.2-
980803 699  0.8+  0.9-    980830 143  0.0   0.4+    981016 557  0.0   0.3-
980803 611  0.3+  0.2-    980831 046  0.2-  0.0     981016 557  0.0   0.5-
980803 611  0.4+  0.1-    980831 046  0.3-  0.0     981016 557  0.2+  0.4-
980803 611  0.5+  0.1+    980831 046  0.3-  0.2-    981017 557  0.2+  0.4-
980804 954  0.7+  0.3+    980902 860  0.3-  0.5-    981017 294  0.4+  0.1-
980804 954  0.7+  0.3+    980902 860  0.6-  0.3-    981017 294  0.1-  0.2-
980804 658  0.2+  0.4-    980902 860  0.3+  0.5-    981017 557  0.7+  0.3+
980804 658  0.1-  0.5-    980904 402  0.1+  0.1+    981017 557  0.6+  0.2+
980804 658  0.1-  0.5-    980904 402  0.1+  0.0     981017 540  1.4+  1.1+
980804 699  0.5+  0.6-    980904 402  0.1+  0.1-    981017 540  1.0+  0.8+
980804 699  0.1-  0.6-    980906 108  0.1-  0.5-    981017 540  1.0+  0.7+
980804 699  0.6+  0.2-    980906 108  0.4+  1.0+    981017 557  0.7+  0.3+
980804 360  0.1+  0.3-    980909 540  0.6-  0.3+    981018 704  0.3-  0.7+
980804 360  0.2+  0.2-    980909 540  0.3-  0.2+    981018 704  0.6-  1.7+
980804 360  0.1+  0.3-    980909 540  0.5-  0.1+    981018 704  0.6+  1.0+
980804 954  0.7+  0.3+    980909 540  0.4-  0.2+    981018 704  0.2-  1.5+
980804 954  0.7+  0.2+    980912 636  0.1-  0.0     981018 704  1.9+  1.9+
980805 954  0.8+  0.2+    980912 636  0.0   0.4-    981018 355  0.8+  0.1+
980805 954  0.5+  0.3+    980912 636  0.5-  0.1-    981018 355  0.7+  0.6+
980805 360  0.2+  0.1-    980916 750  0.2-  0.5+    981018 355  0.7+  0.1+
980805 360  0.2+  0.2-    980916 761  0.9-  0.1+    981019 750  0.2+  1.1+
980805 360  0.2+  0.4-    980916 750  0.2-  0.2-    981019 750  0.3+  0.2+
980805 046  0.2-  0.3-    980916 761  0.7-  0.1+    981019 151  0.3-  0.4+
980805 046  0.2+  0.9-    980917 635  0.3+  0.2-    981019 151  0.1-  0.3+
980805 046  0.0   0.3-    980917 635 (2.1+  0.7+)   981019 151  0.7-  0.1+
980805 046  0.1+  0.1-    980917 635  0.3+  1.4+    981019 635  0.1-  0.6-
980805 046  0.4+  0.1+    980918 750  0.2+  0.8-    981019 635  0.3-  0.5-
980805 557  0.4+  0.3-    980918 750  1.1+  0.3-    981019 636  0.0   0.0
980805 557  0.4-  0.2-    980918 557  0.0   0.1-    981019 636  0.2+  0.5+
980805 557  0.1+  0.4-    980918 138  0.1-  0.1-    981020 689  0.3-  0.3-
980805 611  0.3-  0.0     980918 143  0.3-  0.1-    981020 636  0.3+  1.0-
980805 611  0.6+  0.2+    980918 143  0.6-  0.3-    981020 636  0.1+  0.7-
980806 673  1.2+  1.3-    980918 143  0.5-  0.0     981020 636  0.1-  0.8-
980806 118  0.1-  0.3-    980918 138  0.4-  0.1-    981020 557  0.1-  0.1-
980806 118  0.2+  0.1-    980918 557  0.1+  0.1-    981020 635  0.2-  0.0
980806 118  0.3+  0.3-    980918 138  0.2-  0.0     981020 635  1.4+  0.1-
980806 046  0.1-  0.3-    980918 557  0.1+  0.2-    981020 557  0.1-  0.1-
980806 046  0.0   0.3-    980918 557  0.1+  0.3-    981020 557  0.1-  0.0
980806 046  0.2+  0.4-    980919 704  0.4-  0.1+    981020 557  0.0   0.1-
980806 046  0.2+  0.2+    980919 704  0.9+  1.2-    981021 557  0.0   0.0
980807 046  0.1+  0.0     980919 704  1.0-  0.5+    981021 360  0.5-  0.4+
980807 046  0.3+  0.6-    980919 704  0.1+  0.4-    981021 360  0.3-  0.4+
980807 046  0.4+  0.0     980919 670  0.2+  0.0     981021 360  0.2-  0.5+
980810 557  0.1+  0.3-    980919 670  0.3-  0.1+    981022 118  0.4+  0.1+
980810 557  0.2+  0.3+    980919 670  0.1-  0.1-    981022 118  0.3+  0.1+
980810 557  0.5-  0.1+    980919 151  0.8+  0.1+    981023 750  0.8+  0.3+
980810 557  0.1+  0.2-    980919 557  0.2+  0.1-    981023 750  1.2-  0.9+
980811 402  0.1+  0.3+    980919 151  0.1+  0.1+    981023 750  0.6-  0.9+
980811 402  0.2-  0.3-    980919 557  0.2+  0.1-    981023 750 (0.5+  2.1+)
980811 402  0.0   0.2-    980919 557  0.2+  0.2-    981023 561  0.0   1.7+
980811 402  0.0   0.0     980919 557  0.2+  0.1-    981023 561  0.1-  0.7+
980811 108 (1.5-  2.5+)   980920 631  0.2+  0.1-    981023 561  0.1+  0.2+
980811 108  0.4+  1.9+    980920 628  0.1+  0.7-    981023 561  0.2-  0.9-
980811 108  1.3+  0.9+    980920 628  0.0   0.6-    981023 561  0.2-  0.5-
980812 046  0.1-  0.0     980920 127 (2.2+  1.3-)   981024 750  1.2+  0.2-
980812 046  0.3-  0.1-    980920 127 (2.0+  1.4-)   981024 750  0.3-  1.1-
980812 046  0.1-  0.1+    980920 631  0.8+  0.1+    981024 557  0.1+  0.3-
980814 422  0.6-  0.3-    980920 636  0.3-  0.3-    981024 557  0.4+  0.4-
980814 422  0.5-  0.2-    980921 127  0.4+  0.1-    981024 557  0.2+  0.4-
980814 422  0.4-  0.2+    980921 127  0.3+  0.1-    981024 561  0.0   0.4+
980814 422  0.4-  0.1-    980921 635  1.8-  0.1+    981024 561  0.4+  1.3+
980814 540  0.7+  0.6-    980921 635 (2.9-  0.0 )   981024 561  0.6+  0.3+
980814 540  1.0-  0.0     980921 635  0.6+  0.7-    981024 557  0.3+  0.4-
980814 540  0.1-  0.1+    980921 635  0.3+  0.5-    981024 557  0.1+  0.3-
980814 557  0.3-  0.1-    980922 557  0.1+  0.2-    981025 143  0.2+  0.1-
980814 557  0.2-  0.1+    980922 557  0.2+  0.3-    981025 143  0.2-  0.1-
980814 557  0.1-  0.1+    980922 557  0.1+  0.2-    981025 143  0.1-  0.2+
980814 151  0.1+  0.7+    980922 633  0.0   0.2-    981025 639 (4.7+  3.2+)
980814 151 (3.5-  0.8-)   980922 628  0.5+  0.5-    981025 639  0.4+  0.1-
980814 557  0.0   0.0     980922 633  0.2-  0.3-    981026 561  0.9-  0.3-
980815 557  0.1-  0.2-    980922 628  0.1+  0.1-    981026 561  1.2-  0.1-
980815 360  0.1-  0.3+    980922 633  0.1+  0.4-    981026 540  0.3+  0.3+
980815 360  0.1+  0.1+    980922 628  0.5+  0.2-    981026 540  0.0   0.3+
980815 360  0.2-  0.2+    980922 628  0.3+  0.1-    981026 540  0.3-  0.3+
980815 108 (1.4+  2.5+)   980923 750  0.4+  0.6-    981026 561  0.6-  0.1+
980815 108  1.0+  0.6+    980923 750  0.4-  0.4-    981026 118  0.1-  0.2+
980815 108  0.4-  1.3+    980923 704  0.6-  0.5+    981026 118  0.2-  0.2+
980817 118  0.4+  0.6+    980923 704  0.4-  0.1-    981026 118  0.2-  0.1+
980817 118  0.2+  0.6+    980923 704  0.8-  1.0+    981026 561  0.1-  0.1-
980817 557  0.2+  0.1+    980923 704  1.4-  0.7+    981026 561  0.3+  0.2-
980817 557  0.2+  0.2-    980923 704  0.4-  0.6+    981027 561  1.1+  0.3+
980817 557  0.0   0.1-    980923 636  1.3+  0.4-    981027 561  0.8+  0.4+
980819 670  0.5-  0.1-    980923 628  0.3+  0.3-    981027 561  0.4+  0.4+
980819 670  0.7+  1.2-    980923 636  1.0+  0.5-    981027 561  0.0   0.1+
980819 670  0.0   0.8-    980923 628  0.2-  0.1-    981027 108  0.7+  0.1+
980819 704  0.0   0.1-    980923 628  0.2+  0.4-    981027 108  1.1+  0.4+
980819 704  1.9-  0.6+    980923 628  0.3+  0.1-    981027 108  1.7+  0.2-
980819 704  0.8-  1.5+    980924 294  0.7+  0.4-    981027 108  1.1+  0.1-
980819 704  0.6+  0.8+    980924 294  1.8-  0.8-    981027 561  0.2-  0.3+
980819 704  0.4+  0.5+    980924 631  0.7+  0.7-    981027 561  0.2+  0.1+
980819 557  0.0   0.3-    980924 631  0.3-  1.1-    981028 635  0.0   0.1+
980819 557  0.5-  0.3+    980924 017  0.4+  0.5-    981028 635  0.6+  0.6-
980819 557  0.1+  0.2-    980924 017  0.2+  0.9-    981028 635  0.3+  0.1+
980819 557  0.1+  0.0     980925 151  0.1+  1.0-    981105 635  0.2-  0.1-
980819 557  0.3+  0.4-    980925 151  0.0   0.8-    981105 635  0.7-  0.5+
980819 596  0.1-  1.2+    980928 750  0.5-  0.0     981105 635  0.3-  0.1+
980819 596  0.0   0.2+    980928 750  0.0   0.0     981105 151  0.3-  0.2+
980819 596  0.6-  0.8-    980928 635 (2.6-  1.0-)   981105 151  1.1+  0.1-
980819 611  0.2+  0.2+    980928 635  0.4-  0.1+    981105 151  0.1+  0.0
980819 611  0.4+  0.1-    980928 635 (2.3-  1.5-)   981105 118  0.4-  0.1+
980819 611  1.4+  0.0     980930 750  0.8+  0.1+    981105 118  0.2-  0.3+
980819 557  0.5+  0.3-    980930 750  0.3-  0.4-    981106 635  0.5+  0.1-
980819 557  0.4+  0.2-    981002 750  0.3+  0.3-    981106 635  0.7+  0.2-
980819 557  0.3+  0.1-    981002 750  0.8-  0.8-    981106 635  0.0   0.1-
980819 557  0.1+  0.2-    981002 355  0.5-  0.3-    981106 560  0.1+  0.2-
980819 046  0.2+  0.2-    981002 355  0.4-  1.0-    981106 560  0.2+  0.4-
980819 046  0.1+  0.1-    981002 355  1.2-  0.5-    981107 689  0.0   1.1-
980819 046  0.2+  0.2-    981002 151  1.0-  0.6-    981107 151  0.5+  0.6-
980819 046  0.1+  0.2-    981002 151  1.0-  0.2-    981107 151  1.7-  0.9+
980820 659  1.0+  0.2+    981002 151  0.9-  0.7-    981107 151  0.8-  0.2+
980820 659  0.3+  0.2-    981005 670  0.0   0.0     981108 118  0.2-  0.2+
980820 659  0.4+  0.4+    981005 670  0.5+  0.4-    981108 118  0.1+  0.2-
980820 659  0.2+  0.4+    981005 670  0.9+  0.3+    981110 699  1.5-  1.0+
980820 959 (1.5+  5.0+)   981006 151  0.1+  0.7-    981110 699  1.2-  0.8+
980821 557  0.2-  0.2+    981006 151  0.6-  0.1-    981110 699  0.9-  0.6-
980821 557  0.8-  0.5+    981006 151  0.1-  0.5-    981111 355  0.2+  0.4+
980821 659  0.3+  0.1+    981007 758  0.0   0.3-    981111 355  0.3+  0.2-
980821 659  0.1+  0.2+    981007 758  0.1-  0.6-    981111 151  0.9-  0.2+
980822 143  0.5-  0.6+    981007 758  0.3-  0.2-    981111 151  0.1+  0.3+
980822 143  0.0   0.2-    981007 758  0.2-  0.1-    981111 151  0.4-  0.5+
980822 143  0.3+  0.0     981009 758  0.2+  0.5-    981115 635  0.5+  0.3+
980823 658  0.8-  0.2+    981009 758  0.0   0.1-    981115 635  0.4+  0.1-
980823 658  1.0-  0.1+    981009 758  0.2+  0.8-    981115 635  0.6+  0.2+
980823 658  0.9-  0.2+    981011 761  0.8+  0.7-    981115 635  1.3+  0.1-
980823 426  0.5-  0.1+    981011 761  1.1+  0.7-    981116 566  0.2-  0.7-
980823 426  0.6-  0.3+    981011 758  0.3-  0.2-    981116 566  0.1-  0.6-
980823 426  0.4-  0.2+    981011 758  0.5-  0.0     981116 566  0.2-  0.9-
980824 704  0.2+  0.1-    981011 758  0.3-  0.2-    981118 888  0.1-  0.5-
980824 670  0.3+  0.5+    981012 761  0.2-  0.1-    981118 888  0.2-  0.2-
980824 704  0.4-  0.1+    981012 761  0.5-  0.4+    981118 888  0.2-  0.4-
980824 670  0.4+  1.0+    981012 294  0.6+  0.1-    981208 704  0.7+  0.4+
980824 670  0.1-  0.2+    981012 294  0.8-  0.0     981208 704  0.7+  0.8-
980824 704  0.3+  0.6+    981012 294  0.0   1.2-    981208 704  0.9+  0.2+
980824 704  0.5+  0.6+    981012 704  0.4-  0.1+    981208 704  0.9+  1.3+
980824 704  0.6+  0.1+    981012 704  0.9-  0.1+    981208 704  1.4-  0.3-
980825 959  0.5-  0.2-    981012 704  0.3-  0.5+    981209 118  0.3+  0.1-
980825 959  0.6-  0.0     981012 704  1.1-  0.9+    981209 118  0.4+  0.1+
980825 959  0.1+  0.3-    981012 704  0.6+  0.1+    981211 699  1.3-  0.8-
980825 118  0.1-  0.4+    981013 750  0.0   0.2+    981211 699  0.9-  0.1+
980825 118  0.1-  0.1+    981013 750  0.1+  0.0     981211 699  0.4-  0.6-
980826 635  0.2-  1.5+    981013 104  0.1+  0.5+    981212 422  0.7-  0.2-
980826 635  0.4+  1.7+    981013 104  0.1+  0.6+    981212 422  0.3-  0.2-
980826 658  0.9-  0.3+    981013 104  0.1+  0.8+    981212 422  0.2-  0.7-
980826 658  0.6-  0.1+    981013 104  0.1+  0.7+    981218 046  0.6+  0.7-
980826 658  0.9-  0.3+    981014 635  1.4-  0.7-    981218 046  0.3+  0.1+
980827 704  1.0-  0.0     981014 635  0.8+  1.2-    981218 046  0.1+  0.3-
980827 704  0.2-  0.0     981015 294  0.6-  0.2+    981218 046  0.7+  0.5-
980827 704  0.8+  0.2-    981015 294  0.8-  0.8+    981220 360  0.3+  0.1+
980827 704  0.2+  1.2+    981015 636  0.8-  0.1+    981220 360  0.7+  0.3-
980827 704  0.2+  1.3+    981015 636  0.8+  0.2-    981220 360  0.2+  0.1+
980828 121  0.1-  0.4+    981015 636  0.8-  0.6+    990124 711  1.4-  0.7-
980828 121  0.2-  0.5+    981015 143  0.5-  0.6+    990124 711  1.0-  0.4-
980828 121  0.1-  0.4+    981015 143  0.5-  0.6+

